Time,TemperatureF,DewpointF,PressureIn,WindDirection,WindDirectionDegrees,WindSpeedMPH,WindSpeedGustMPH,Humidity,HourlyPrecipIn,Conditions,Clouds,dailyrainin,SoftwareType,DateUTC
2013-06-28 00:01:00,74.0,62.0,-100.00,WNW,290,6.0,9.0,65,0.00,,,-99.99,,2013-06-28 05:01:00,
2013-06-28 00:11:00,74.0,62.0,-100.00,WNW,285,6.0,10.0,66,0.00,,,-99.99,,2013-06-28 05:11:00,
2013-06-28 00:22:00,73.0,62.0,-100.00,WNW,285,6.0,9.0,67,0.00,,,-99.99,,2013-06-28 05:22:00,
2013-06-28 00:33:00,73.0,62.0,-100.00,WNW,285,6.0,9.0,68,0.00,,,-99.99,,2013-06-28 05:33:00,
2013-06-28 00:43:00,72.0,62.0,-100.00,WNW,290,6.0,9.0,69,0.00,,,-99.99,,2013-06-28 05:43:00,
2013-06-28 00:53:00,72.0,62.0,-100.00,WNW,295,6.0,9.0,70,0.00,,,-99.99,,2013-06-28 05:53:00,
2013-06-28 01:02:00,72.0,62.0,-100.00,WNW,295,6.0,9.0,71,0.00,,,-99.99,,2013-06-28 06:02:00,
2013-06-28 01:12:00,72.0,63.0,-100.00,WNW,295,6.0,9.0,72,0.00,,,-99.99,,2013-06-28 06:12:00,
2013-06-28 01:22:00,72.0,63.0,-100.00,WNW,290,6.0,7.0,73,0.00,,,-99.99,,2013-06-28 06:22:00,
2013-06-28 01:33:00,72.0,63.0,-100.00,WNW,295,6.0,9.0,73,0.00,,,-99.99,,2013-06-28 06:33:00,
2013-06-28 01:42:00,72.0,63.0,-100.00,WNW,300,6.0,9.0,74,0.00,,,-99.99,,2013-06-28 06:42:00,
2013-06-28 02:01:00,72.0,63.0,-100.00,WNW,295,6.0,9.0,74,0.00,,,-99.99,,2013-06-28 07:01:00,
2013-06-28 02:11:00,71.0,63.0,-100.00,WNW,290,6.0,9.0,76,0.00,,,-99.99,,2013-06-28 07:11:00,
2013-06-28 02:22:00,71.0,63.0,-100.00,WNW,295,6.0,9.0,77,0.00,,,-99.99,,2013-06-28 07:22:00,
2013-06-28 02:33:00,71.0,63.0,-100.00,WNW,285,7.0,10.0,77,0.00,,,-99.99,,2013-06-28 07:33:00,
2013-06-28 02:43:00,71.0,64.0,-100.00,WNW,300,7.0,10.0,77,0.00,,,-99.99,,2013-06-28 07:43:00,
2013-06-28 02:52:00,71.0,64.0,-100.00,WNW,300,7.0,11.0,79,0.00,,,-99.99,,2013-06-28 07:52:00,
2013-06-28 03:01:00,71.0,64.0,-100.00,WNW,295,7.0,9.0,79,0.00,,,-99.99,,2013-06-28 08:01:00,
2013-06-28 03:11:00,70.0,64.0,-100.00,WNW,285,6.0,9.0,80,0.00,,,-99.99,,2013-06-28 08:11:00,
2013-06-28 03:33:00,70.0,64.0,-100.00,NW,305,7.0,10.0,82,0.00,,,-99.99,,2013-06-28 08:33:00,
2013-06-28 03:43:00,70.0,65.0,-100.00,WNW,300,6.0,7.0,82,0.00,,,-99.99,,2013-06-28 08:43:00,
2013-06-28 03:52:00,70.0,65.0,-100.00,NW,305,6.0,9.0,82,0.00,,,-99.99,,2013-06-28 08:52:00,
2013-06-28 04:02:00,70.0,65.0,-100.00,NW,305,7.0,11.0,82,0.00,,,-99.99,,2013-06-28 09:02:00,
2013-06-28 04:11:00,70.0,65.0,-100.00,NW,305,7.0,11.0,82,0.00,,,-99.99,,2013-06-28 09:11:00,
2013-06-28 04:22:00,71.0,65.0,-100.00,WNW,295,7.0,11.0,82,0.00,,,-99.99,,2013-06-28 09:22:00,
2013-06-28 04:33:00,70.0,65.0,-100.00,WNW,295,6.0,11.0,82,0.00,,,-99.99,,2013-06-28 09:33:00,
2013-06-28 04:42:00,71.0,65.0,-100.00,WNW,300,7.0,11.0,82,0.00,,,-99.99,,2013-06-28 09:42:00,
2013-06-28 05:02:00,70.0,65.0,-100.00,NW,305,6.0,9.0,82,0.00,,,-99.99,,2013-06-28 10:02:00,
2013-06-28 05:12:00,71.0,65.0,-100.00,NW,310,6.0,13.0,81,0.00,,,-99.99,,2013-06-28 10:12:00,
2013-06-28 05:22:00,70.0,64.0,-100.00,WNW,300,6.0,10.0,80,0.00,,,-99.99,,2013-06-28 10:22:00,
2013-06-28 05:42:00,70.0,63.0,-100.00,NW,315,6.0,12.0,78,0.00,,,-99.99,,2013-06-28 10:42:00,
2013-06-28 06:02:00,70.0,62.0,-100.00,NNW,340,4.0,11.0,77,0.00,,,-99.99,,2013-06-28 11:02:00,
2013-06-28 06:11:00,70.0,62.0,-100.00,NW,325,6.0,12.0,77,0.00,,,-99.99,,2013-06-28 11:11:00,
2013-06-28 06:22:00,69.0,62.0,-100.00,North,0,4.0,14.0,76,0.00,,,-99.99,,2013-06-28 11:22:00,
2013-06-28 06:34:00,69.0,61.0,-100.00,NNW,330,6.0,12.0,75,0.00,,,-99.99,,2013-06-28 11:34:00,
2013-06-28 06:43:00,69.0,61.0,-100.00,NNW,330,6.0,11.0,75,0.00,,,-99.99,,2013-06-28 11:43:00,
2013-06-28 06:53:00,69.0,61.0,-100.00,North,350,6.0,10.0,75,0.00,,,-99.99,,2013-06-28 11:53:00,
2013-06-28 07:02:00,69.0,61.0,-100.00,NW,325,6.0,11.0,74,0.00,,,-99.99,,2013-06-28 12:02:00,
2013-06-28 07:12:00,69.0,61.0,-100.00,NW,320,6.0,12.0,74,0.00,,,-99.99,,2013-06-28 12:12:00,
2013-06-28 07:22:00,69.0,61.0,-100.00,NW,325,5.0,11.0,74,0.00,,,-99.99,,2013-06-28 12:22:00,
2013-06-28 07:34:00,69.0,61.0,-100.00,NW,325,5.0,11.0,74,0.00,,,-99.99,,2013-06-28 12:34:00,
2013-06-28 07:43:00,70.0,60.0,-100.00,NNW,340,4.0,10.0,71,0.00,,,-99.99,,2013-06-28 12:43:00,
2013-06-28 07:52:00,70.0,61.0,-100.00,NW,320,6.0,10.0,71,0.00,,,-99.99,,2013-06-28 12:52:00,
2013-06-28 08:11:00,72.0,61.0,-100.00,North,350,6.0,12.0,67,0.00,,,-99.99,,2013-06-28 13:11:00,
2013-06-28 08:23:00,73.0,61.0,-100.00,NNW,330,6.0,11.0,65,0.00,,,-99.99,,2013-06-28 13:23:00,
2013-06-28 08:43:00,74.0,61.0,-100.00,NW,320,5.0,11.0,62,0.00,,,-99.99,,2013-06-28 13:43:00,
2013-06-28 08:53:00,75.0,61.0,-100.00,NW,320,6.0,12.0,60,0.00,,,-99.99,,2013-06-28 13:53:00,
2013-06-28 09:02:00,76.0,61.0,-100.00,NW,305,7.0,10.0,59,0.00,,,-99.99,,2013-06-28 14:02:00,
2013-06-28 09:12:00,76.0,61.0,-100.00,WNW,300,9.0,12.0,58,0.00,,,-99.99,,2013-06-28 14:12:00,
2013-06-28 09:33:00,77.0,61.0,-100.00,WNW,295,12.0,14.0,57,0.00,,,-99.99,,2013-06-28 14:33:00,
2013-06-28 09:44:00,78.0,62.0,-100.00,WNW,290,9.0,13.0,58,0.00,,,-99.99,,2013-06-28 14:44:00,
2013-06-28 10:02:00,78.0,61.0,-100.00,WNW,290,12.0,19.0,56,0.00,,,-99.99,,2013-06-28 15:02:00,
2013-06-28 10:11:00,78.0,60.0,-100.00,NW,305,12.0,20.0,53,0.00,,,-99.99,,2013-06-28 15:11:00,
2013-06-28 10:24:00,78.0,59.0,-100.00,NW,325,9.0,16.0,51,0.00,,,-99.99,,2013-06-28 15:24:00,
2013-06-28 10:34:00,79.0,58.0,-100.00,NW,310,12.0,21.0,49,0.00,,,-99.99,,2013-06-28 15:34:00,
2013-06-28 10:43:00,79.0,58.0,-100.00,NW,310,11.0,18.0,48,0.00,,,-99.99,,2013-06-28 15:43:00,
2013-06-28 11:01:00,80.0,58.0,-100.00,NNW,345,13.0,20.0,47,0.00,,,-99.99,,2013-06-28 16:01:00,
2013-06-28 11:11:00,80.0,57.0,-100.00,WNW,300,13.0,21.0,46,0.00,,,-99.99,,2013-06-28 16:11:00,
2013-06-28 11:24:00,80.0,58.0,-100.00,NW,315,11.0,21.0,45,0.00,,,-99.99,,2013-06-28 16:24:00,
2013-06-28 11:33:00,80.0,58.0,-100.00,WNW,300,16.0,27.0,46,0.00,,,-99.99,,2013-06-28 16:33:00,
2013-06-28 11:44:00,80.0,57.0,-100.00,NW,310,17.0,26.0,45,0.00,,,-99.99,,2013-06-28 16:44:00,
2013-06-28 11:53:00,81.0,57.0,-100.00,WNW,300,15.0,24.0,45,0.00,,,-99.99,,2013-06-28 16:53:00,
2013-06-28 12:02:00,81.0,57.0,-100.00,NW,315,15.0,26.0,44,0.00,,,-99.99,,2013-06-28 17:02:00,
2013-06-28 12:11:00,81.0,57.0,-100.00,NW,320,18.0,28.0,44,0.00,,,-99.99,,2013-06-28 17:11:00,
2013-06-28 12:22:00,81.0,57.0,-100.00,NW,320,18.0,28.0,44,0.00,,,-99.99,,2013-06-28 17:22:00,
2013-06-28 12:33:00,82.0,58.0,-100.00,NW,310,15.0,24.0,44,0.00,,,-99.99,,2013-06-28 17:33:00,
2013-06-28 12:44:00,82.0,56.0,-100.00,NW,310,14.0,28.0,41,0.00,,,-99.99,,2013-06-28 17:44:00,
2013-06-28 12:52:00,82.0,55.0,-100.00,NW,315,13.0,31.0,39,0.00,,,-99.99,,2013-06-28 17:52:00,
2013-06-28 13:02:00,82.0,55.0,-100.00,NW,310,16.0,28.0,39,0.00,,,-99.99,,2013-06-28 18:02:00,
2013-06-28 13:11:00,82.0,55.0,-100.00,NW,320,18.0,33.0,39,0.00,,,-99.99,,2013-06-28 18:11:00,
2013-06-28 13:22:00,83.0,56.0,-100.00,NW,315,20.0,26.0,39,0.00,,,-99.99,,2013-06-28 18:22:00,
2013-06-28 13:33:00,83.0,55.0,-100.00,NW,310,15.0,28.0,39,0.00,,,-99.99,,2013-06-28 18:33:00,
2013-06-28 13:43:00,83.0,55.0,-100.00,NW,310,21.0,29.0,37,0.00,,,-99.99,,2013-06-28 18:43:00,
2013-06-28 13:52:00,83.0,55.0,-100.00,NW,310,21.0,29.0,37,0.00,,,-99.99,,2013-06-28 18:52:00,
2013-06-28 14:01:00,83.0,55.0,-100.00,NW,315,19.0,32.0,37,0.00,,,-99.99,,2013-06-28 19:01:00,
2013-06-28 14:11:00,83.0,55.0,-100.00,NW,315,19.0,32.0,37,0.00,,,-99.99,,2013-06-28 19:11:00,
2013-06-28 14:22:00,83.0,55.0,-100.00,NW,320,11.0,27.0,38,0.00,,,-99.99,,2013-06-28 19:22:00,
2013-06-28 14:33:00,84.0,55.0,-100.00,NW,315,17.0,27.0,37,0.00,,,-99.99,,2013-06-28 19:33:00,
2013-06-28 14:43:00,83.0,54.0,-100.00,NW,315,13.0,34.0,36,0.00,,,-99.99,,2013-06-28 19:43:00,
2013-06-28 14:53:00,84.0,55.0,-100.00,NNW,345,13.0,24.0,36,0.00,,,-99.99,,2013-06-28 19:53:00,
2013-06-28 15:02:00,83.0,54.0,-100.00,NNW,345,21.0,32.0,36,0.00,,,-99.99,,2013-06-28 20:02:00,
2013-06-28 15:11:00,84.0,54.0,-100.00,NW,325,17.0,30.0,35,0.00,,,-99.99,,2013-06-28 20:11:00,
2013-06-28 15:22:00,84.0,54.0,-100.00,WNW,300,21.0,32.0,36,0.00,,,-99.99,,2013-06-28 20:22:00,
2013-06-28 15:33:00,84.0,54.0,-100.00,NW,305,17.0,29.0,36,0.00,,,-99.99,,2013-06-28 20:33:00,
2013-06-28 15:43:00,84.0,54.0,-100.00,NNW,345,11.0,28.0,36,0.00,,,-99.99,,2013-06-28 20:43:00,
2013-06-28 15:52:00,83.0,53.0,-100.00,NNW,330,13.0,28.0,35,0.00,,,-99.99,,2013-06-28 20:52:00,
2013-06-28 16:02:00,83.0,53.0,-100.00,NNW,330,13.0,28.0,35,0.00,,,-99.99,,2013-06-28 21:02:00,
2013-06-28 16:11:00,83.0,54.0,-100.00,North,0,15.0,28.0,36,0.00,,,-99.99,,2013-06-28 21:11:00,
2013-06-28 16:23:00,85.0,55.0,-100.00,NNW,335,14.0,24.0,36,0.00,,,-99.99,,2013-06-28 21:23:00,
2013-06-28 16:34:00,84.0,54.0,-100.00,NNW,335,19.0,30.0,35,0.00,,,-99.99,,2013-06-28 21:34:00,
2013-06-28 16:43:00,84.0,54.0,-100.00,NW,315,15.0,27.0,35,0.00,,,-99.99,,2013-06-28 21:43:00,
2013-06-28 17:01:00,84.0,54.0,-100.00,North,355,12.0,26.0,36,0.00,,,-99.99,,2013-06-28 22:01:00,
2013-06-28 17:11:00,84.0,54.0,-100.00,NNW,340,13.0,27.0,36,0.00,,,-99.99,,2013-06-28 22:11:00,
2013-06-28 17:22:00,84.0,54.0,-100.00,NNW,340,13.0,27.0,36,0.00,,,-99.99,,2013-06-28 22:22:00,
2013-06-28 17:34:00,84.0,54.0,-100.00,North,350,14.0,27.0,35,0.00,,,-99.99,,2013-06-28 22:34:00,
2013-06-28 17:43:00,84.0,54.0,-100.00,NNW,340,14.0,23.0,36,0.00,,,-99.99,,2013-06-28 22:43:00,
2013-06-28 17:52:00,84.0,54.0,-100.00,NW,315,12.0,24.0,36,0.00,,,-99.99,,2013-06-28 22:52:00,
2013-06-28 18:02:00,84.0,54.0,-100.00,NW,315,12.0,24.0,36,0.00,,,-99.99,,2013-06-28 23:02:00,
2013-06-28 18:11:00,84.0,54.0,-100.00,NNW,335,13.0,26.0,36,0.00,,,-99.99,,2013-06-28 23:11:00,
2013-06-28 18:23:00,83.0,54.0,-100.00,North,0,12.0,30.0,36,0.00,,,-99.99,,2013-06-28 23:23:00,
2013-06-28 18:34:00,83.0,54.0,-100.00,NNW,345,17.0,32.0,36,0.00,,,-99.99,,2013-06-28 23:34:00,
2013-06-28 18:43:00,83.0,54.0,-100.00,NNW,345,17.0,32.0,36,0.00,,,-99.99,,2013-06-28 23:43:00,
2013-06-28 19:02:00,83.0,54.0,-100.00,NNW,345,17.0,28.0,37,0.00,,,-99.99,,2013-06-29 00:02:00,
2013-06-28 19:11:00,82.0,54.0,-100.00,North,0,17.0,28.0,37,0.00,,,-99.99,,2013-06-29 00:11:00,
2013-06-28 19:23:00,82.0,54.0,-100.00,North,0,22.0,33.0,38,0.00,,,-99.99,,2013-06-29 00:23:00,
2013-06-28 19:33:00,82.0,56.0,-100.00,North,0,11.0,25.0,40,0.00,,,-99.99,,2013-06-29 00:33:00,
2013-06-28 19:42:00,81.0,55.0,-100.00,NNW,330,11.0,30.0,40,0.00,,,-99.99,,2013-06-29 00:42:00,
2013-06-28 20:01:00,81.0,56.0,-100.00,NNW,330,11.0,21.0,42,0.00,,,-99.99,,2013-06-29 01:01:00,
2013-06-28 20:11:00,81.0,56.0,-100.00,North,0,11.0,21.0,42,0.00,,,-99.99,,2013-06-29 01:11:00,
2013-06-28 20:22:00,80.0,55.0,-100.00,North,0,12.0,24.0,42,0.00,,,-99.99,,2013-06-29 01:22:00,
2013-06-28 20:32:00,80.0,55.0,-100.00,North,0,12.0,24.0,42,0.00,,,-99.99,,2013-06-29 01:32:00,
2013-06-28 20:42:00,80.0,55.0,-100.00,NNW,345,13.0,23.0,42,0.00,,,-99.99,,2013-06-29 01:42:00,
2013-06-28 20:51:00,79.0,54.0,-100.00,NNW,330,11.0,21.0,42,0.00,,,-99.99,,2013-06-29 01:51:00,
2013-06-28 21:01:00,79.0,54.0,-100.00,NNW,340,9.0,20.0,43,0.00,,,-99.99,,2013-06-29 02:01:00,
2013-06-28 21:11:00,79.0,54.0,-100.00,NNW,340,9.0,20.0,43,0.00,,,-99.99,,2013-06-29 02:11:00,
2013-06-28 21:21:00,77.0,54.0,-100.00,North,350,6.0,12.0,45,0.00,,,-99.99,,2013-06-29 02:21:00,
2013-06-28 21:31:00,77.0,55.0,-100.00,NNW,345,10.0,19.0,46,0.00,,,-99.99,,2013-06-29 02:31:00,
2013-06-28 21:41:00,76.0,54.0,-100.00,NNW,345,9.0,13.0,46,0.00,,,-99.99,,2013-06-29 02:41:00,
2013-06-28 21:51:00,76.0,54.0,-100.00,NW,325,7.0,14.0,46,0.00,,,-99.99,,2013-06-29 02:51:00,
2013-06-28 22:01:00,76.0,54.0,-100.00,NW,325,7.0,14.0,46,0.00,,,-99.99,,2013-06-29 03:01:00,
2013-06-28 22:11:00,75.0,54.0,-100.00,North,0,6.0,13.0,47,0.00,,,-99.99,,2013-06-29 03:11:00,
2013-06-28 22:21:00,75.0,54.0,-100.00,NW,320,6.0,11.0,48,0.00,,,-99.99,,2013-06-29 03:21:00,
2013-06-28 22:32:00,74.0,54.0,-100.00,NNW,335,6.0,9.0,48,0.00,,,-99.99,,2013-06-29 03:32:00,
2013-06-28 22:41:00,74.0,54.0,-100.00,NNW,340,6.0,9.0,49,0.00,,,-99.99,,2013-06-29 03:41:00,
2013-06-28 23:01:00,74.0,54.0,-100.00,NNW,345,6.0,11.0,51,0.00,,,-99.99,,2013-06-29 04:01:00,
2013-06-28 23:11:00,74.0,55.0,-100.00,NNW,340,6.0,12.0,51,0.00,,,-99.99,,2013-06-29 04:11:00,
2013-06-28 23:23:00,73.0,55.0,-100.00,North,0,4.0,10.0,53,0.00,,,-99.99,,2013-06-29 04:23:00,
2013-06-28 23:32:00,73.0,55.0,-100.00,North,0,4.0,10.0,53,0.00,,,-99.99,,2013-06-29 04:32:00,
2013-06-28 23:41:00,72.0,56.0,-100.00,NW,325,4.0,10.0,55,0.00,,,-99.99,,2013-06-29 04:41:00,